Wind_Speed
20 21 21 22 23 24 24 25 27 28 30 31 32 33 34 35 36 36 37 37 38 38 38 38 38 38 39 39 40 41 42 43 43 43 44 44 45 45 46 46 47 48 48 49 49 50 50 51 51 51 52 53 53 54 54 55 55 55 56 56 56 56 56 56 55 52 50 51 51 51 51 50 50 50 51 51 51 52 53 53 53 53 53 50 48
22 22 23 24 25 25 26 28 29 31 32 33 34 34 35 35 36 36 37 37 37 37 36 36 37 37 38 39 40 41 41 42 42 43 43 44 44 45 45 46 47 47 48 49 49 50 51 51 52 53 54 54 55 55 56 56 56 56 57 57 57 57 58 58 57 56 54 53 53 53 53 53 52 52 52 52 52 52 53 54 54 54 54 53 50
24 24 25 26 27 28 29 30 32 33 33 34 34 34 35 35 36 36 36 36 36 36 36 36 37 38 39 40 40 41 41 42 42 43 43 43 44 44 45 46 47 47 48 49 50 51 51 52 53 54 55 56 56 56 57 57 57 57 57 58 58 58 58 59 59 58 57 56 55 56 56 55 54 54 54 54 54 54 53 54 55 55 55 55 52
25 26 27 28 29 30 31 32 33 33 33 34 34 34 35 35 36 36 36 36 36 37 37 38 39 40 40 41 41 41 41 41 41 42 42 43 43 44 45 46 47 48 49 50 51 52 52 53 54 55 56 57 57 57 58 58 58 58 58 58 58 58 58 59 59 59 58 57 56 57 58 58 57 57 56 55 55 56 56 55 56 56 56 56 55
27 29 29 30 31 31 32 33 34 33 33 33 34 34 35 35 36 36 36 37 37 38 38 39 39 39 39 40 40 40 40 40 40 41 41 42 43 44 46 47 48 49 50 51 52 53 54 54 55 56 56 57 57 57 57 57 57 57 57 58 58 58 58 58 59 58 58 57 57 56 58 59 59 59 59 58 56 56 57 57 57 57 57 56 56
29 31 31 32 32 33 34 34 34 33 33 33 34 34 35 35 36 36 36 37 37 37 38 38 38 38 38 38 38 38 38 39 39 41 42 43 44 46 47 48 49 50 51 52 53 54 55 55 55 56 56 56 57 56 56 56 56 57 57 57 57 58 58 58 58 58 58 57 57 56 57 58 59 59 59 60 59 58 58 58 58 59 59 57 57
31 32 33 33 34 34 34 34 33 33 33 33 34 35 35 36 36 36 36 36 36 36 37 37 36 36 36 36 37 37 38 39 40 42 43 44 46 47 48 49 50 51 52 53 53 54 54 55 55 55 55 55 56 56 56 56 56 57 57 58 58 58 58 59 59 59 59 58 58 58 58 58 60 60 60 60 60 60 60 59 58 58 60 60 58
32 34 34 34 35 35 34 33 33 33 33 34 34 35 36 36 36 36 36 36 36 36 36 35 35 35 35 36 36 37 38 40 42 43 45 46 47 48 49 50 51 51 52 53 53 54 54 54 54 54 54 55 55 56 56 56 56 57 57 58 58 59 59 60 60 61 61 60 60 60 60 60 61 62 62 62 62 62 62 61 59 58 59 61 61
34 35 34 35 35 34 34 33 34 34 34 34 35 35 36 36 36 36 35 35 35 35 34 34 34 34 35 35 36 38 40 42 43 45 46 47 48 49 49 50 50 51 52 52 53 53 53 53 53 53 54 54 55 55 55 55 56 56 57 58 59 60 61 62 63 63 63 63 63 63 62 63 64 65 65 65 65 64 64 63 62 60 59 60 61
35 35 35 35 35 34 34 34 34 34 34 34 35 35 36 36 35 35 35 35 34 33 33 33 34 35 35 35 37 39 41 43 44 46 47 47 48 48 49 49 50 50 51 51 51 51 52 52 53 53 53 53 52 52 53 54 55 56 58 59 61 62 63 64 65 65 65 65 65 65 64 64 65 66 67 67 67 67 66 65 64 62 60 59 59
35 35 34 34 34 34 34 35 35 35 34 34 35 35 35 35 34 34 34 34 33 33 33 33 34 34 34 36 38 41 43 44 45 46 47 47 47 48 48 49 49 50 50 50 50 51 52 52 52 52 51 50 50 51 52 53 55 56 58 60 62 63 64 65 65 66 66 67 66 66 66 65 65 66 67 68 68 68 68 68 66 65 63 60 59
34 34 34 34 34 34 35 35 35 34 34 35 35 35 35 34 34 34 34 34 33 33 33 34 34 34 35 38 40 42 44 45 46 46 46 46 47 47 48 49 49 49 49 50 50 51 51 51 50 49 49 49 49 50 52 53 55 56 57 59 61 63 65 66 67 68 69 69 70 70 70 69 69 68 69 69 68 68 69 69 69 67 65 62 59
34 34 34 34 34 35 35 35 34 34 34 34 35 34 34 34 34 34 34 34 34 34 34 34 34 34 37 39 41 43 44 45 45 45 45 46 47 47 48 48 48 48 49 49 50 51 50 49 48 48 48 48 49 50 52 53 54 55 56 58 60 62 65 67 68 69 69 69 68 67 67 67 66 66 67 68 68 68 68 68 69 69 67 64 61
34 34 35 35 34 35 35 34 34 34 34 34 34 34 34 35 35 35 35 34 34 34 34 34 34 35 38 41 42 43 44 44 44 44 45 45 46 47 47 47 47 48 48 49 49 49 48 47 47 47 47 48 50 51 51 52 53 54 56 58 60 63 65 65 64 61 60 60 59 58 57 56 56 55 56 59 62 64 66 67 68 69 69 66 63
34 34 35 35 34 34 34 33 33 34 34 34 34 35 35 36 36 35 35 35 35 35 34 34 34 37 39 41 42 43 43 43 43 44 44 45 45 45 46 46 47 47 48 48 47 46 46 45 45 46 47 48 50 50 51 52 53 54 56 58 61 63 62 58 54 51 50 50 51 51 50 49 49 47 46 47 50 54 58 62 65 67 68 68 65
34 35 35 35 34 33 33 33 33 33 34 34 34 35 35 36 36 35 35 35 35 34 34 34 35 38 40 41 41 41 42 42 43 43 43 44 44 45 45 45 46 47 47 46 44 44 44 44 44 45 47 48 49 50 50 51 53 55 57 59 61 58 53 47 44 44 45 46 46 46 47 47 45 43 41 41 41 42 46 51 59 65 67 66 64
35 35 35 34 34 33 32 32 33 33 33 34 34 35 36 36 35 35 35 35 35 34 34 34 36 39 40 40 40 40 41 41 42 42 42 43 43 43 44 45 46 46 45 43 42 42 42 42 44 45 47 48 48 49 50 52 54 56 58 59 58 51 43 38 39 41 42 42 42 43 43 42 40 37 37 37 36 35 36 40 48 58 64 64 62
35 35 34 34 33 32 32 32 33 33 34 34 35 35 36 35 35 35 35 35 35 34 34 35 37 39 39 39 39 39 40 40 40 41 41 41 42 42 43 44 44 43 42 41 41 41 41 42 44 45 47 48 48 49 51 52 54 57 59 58 53 43 36 35 37 39 40 39 39 40 40 38 35 34 34 35 35 33 32 32 37 48 57 60 60
35 35 34 34 33 32 33 34 34 34 35 35 35 35 36 35 35 35 35 35 35 35 35 36 38 39 38 38 38 38 38 39 39 40 40 40 41 42 43 43 42 40 40 40 40 40 40 41 43 45 46 47 48 49 51 53 55 58 59 56 47 38 34 34 37 38 38 36 36 38 37 36 34 32 31 31 32 32 31 29 30 37 48 54 57
35 35 35 34 33 33 34 35 35 36 36 36 36 36 36 36 35 35 35 35 35 35 35 36 37 37 36 36 37 37 37 38 38 38 38 39 39 40 41 40 38 38 38 39 38 39 40 41 43 44 45 47 48 50 51 53 56 58 58 53 43 34 32 35 40 40 38 37 38 38 36 34 32 31 30 30 29 29 28 27 26 30 39 47 53
35 36 35 34 34 35 36 36 37 37 37 37 37 37 37 36 35 35 35 35 35 35 35 36 35 35 35 35 35 36 36 36 36 36 37 37 38 39 38 37 36 37 38 38 38 38 39 41 43 44 45 47 48 49 51 53 56 59 57 51 41 34 33 37 42 44 42 40 38 35 33 31 31 30 30 30 30 28 25 23 22 24 31 39 47
36 35 35 35 35 36 37 38 39 38 38 38 38 38 38 37 35 35 35 35 35 34 34 34 33 33 34 34 35 35 35 35 35 35 35 36 37 36 35 35 36 37 37 37 37 38 39 40 42 44 46 47 48 49 50 52 56 58 56 49 41 35 34 37 42 47 48 42 36 33 32 31 31 31 29 28 28 26 20 17 17 19 24 31 41
36 36 35 36 36 37 39 40 40 40 40 40 39 39 39 37 35 36 36 35 33 32 32 32 32 32 33 33 33 33 33 33 33 34 34 35 34 34 33 34 36 36 36 36 36 37 38 39 41 43 45 46 47 48 49 51 55 57 55 49 42 35 33 35 40 47 48 41 33 31 31 32 33 33 30 25 22 19 13 10 11 12 17 24 34
37 37 37 38 39 40 41 42 42 42 41 40 40 41 39 37 36 37 35 32 30 30 30 30 31 31 31 32 32 31 31 31 32 33 33 32 32 32 32 34 34 35 35 35 36 36 37 39 41 42 43 45 46 47 49 51 54 56 54 49 43 36 33 33 38 44 46 39 32 31 32 32 32 34 33 27 19 14 10 7 7 7 10 18 27
38 39 40 41 42 43 43 43 43 43 42 41 42 42 40 37 37 35 30 28 28 28 29 29 30 30 30 30 30 29 29 30 30 31 31 30 30 30 32 33 33 34 34 35 35 35 36 38 40 41 42 44 45 46 48 50 53 55 54 50 43 37 33 32 35 42 44 38 33 33 35 35 32 33 35 30 19 14 12 9 7 4 5 13 22
40 40 41 42 43 44 44 45 44 44 43 42 42 42 39 36 33 29 26 26 26 27 28 28 29 29 29 29 28 28 28 28 29 29 28 28 29 30 31 32 32 33 33 34 34 35 37 38 39 40 41 43 45 46 46 48 51 53 53 51 44 36 32 31 33 40 43 39 35 35 36 37 33 30 33 30 20 14 13 11 8 4 5 11 18
41 41 42 43 43 44 45 46 45 45 44 43 42 39 36 31 26 24 24 25 25 26 27 27 27 27 27 27 26 26 26 27 27 26 26 26 27 29 29 30 30 31 32 32 34 36 37 37 38 39 41 43 44 45 45 46 49 52 53 52 46 39 34 31 32 38 43 41 39 37 36 35 31 28 31 31 22 14 12 10 9 8 8 11 16
41 41 42 42 43 44 45 46 45 43 41 40 38 34 28 24 22 23 23 23 24 25 25 26 26 26 25 25 25 25 25 25 24 24 24 25 26 27 27 28 28 29 30 32 34 35 36 37 37 39 40 42 43 44 44 45 47 50 52 53 50 44 36 30 30 36 41 43 43 39 34 32 29 28 31 30 22 16 14 11 10 9 10 12 15
40 40 41 41 42 44 46 45 42 39 36 35 32 27 23 21 21 22 22 22 23 24 24 24 24 24 23 23 23 23 23 23 22 22 22 23 24 25 25 26 27 28 29 32 34 35 36 37 37 38 40 41 42 44 44 44 45 48 51 52 52 48 41 33 29 32 36 40 44 42 35 31 28 28 30 27 19 15 14 12 10 9 11 12 13
39 39 39 40 42 44 44 42 38 35 32 29 24 21 20 20 21 20 20 21 21 22 23 22 22 22 22 21 21 21 21 21 21 21 21 22 23 23 24 25 26 27 30 32 34 35 36 37 38 39 40 41 42 44 45 45 45 46 48 51 52 51 47 39 33 31 32 35 40 42 40 33 27 26 28 26 19 14 12 11 10 8 10 13 15
38 39 40 42 44 43 40 36 32 29 26 22 20 19 19 20 19 19 19 20 20 21 21 21 21 20 19 19 20 20 20 19 19 19 20 21 22 23 23 24 26 27 30 32 33 34 35 37 39 41 41 42 43 44 45 45 45 45 46 49 51 51 49 46 39 33 31 31 34 39 41 35 28 26 27 26 21 15 10 9 10 8 8 10 12
39 40 41 40 37 34 32 30 27 24 20 18 18 19 18 18 17 17 18 18 19 20 20 19 19 18 17 18 18 18 18 18 18 18 19 19 21 22 22 24 25 27 29 30 31 33 34 37 39 41 42 43 43 44 44 45 45 45 45 46 49 50 51 51 46 38 32 29 30 35 38 37 31 27 25 26 24 18 10 7 7 7 7 7 8
38 37 34 29 27 27 27 25 21 19 17 17 18 17 17 16 16 16 17 18 18 19 18 17 16 16 16 16 17 17 17 16 16 17 18 19 20 21 22 23 25 26 28 29 30 32 34 36 39 40 42 43 44 44 45 45 45 46 45 45 46 48 50 51 50 44 37 30 28 31 35 36 34 30 27 26 26 21 14 8 5 4 3 4 6
31 27 24 24 25 25 23 19 17 16 16 16 17 16 15 14 14 15 17 17 17 17 16 15 15 15 15 15 15 15 15 15 16 16 17 18 20 21 22 23 24 26 27 28 29 31 34 36 38 39 41 43 44 44 45 45 45 45 45 44 44 45 47 49 49 48 44 37 30 29 32 33 34 33 30 28 26 23 19 14 11 8 5 3 4
24 24 24 25 24 21 18 16 15 15 15 15 15 14 13 13 14 15 16 16 16 15 14 13 13 13 13 14 14 14 14 15 15 16 16 18 19 20 22 23 24 25 27 28 29 31 33 35 37 39 40 42 43 44 44 45 45 45 45 45 44 43 44 46 47 48 48 44 37 32 31 31 32 32 32 30 28 26 23 19 16 13 10 6 4
25 26 25 23 20 17 15 14 14 14 15 14 13 13 13 13 14 15 15 15 15 14 13 13 13 12 12 12 13 13 14 14 15 15 16 17 19 20 22 23 24 25 26 28 29 31 32 34 36 37 39 40 42 43 44 44 45 45 45 45 44 43 43 43 44 46 48 47 44 38 33 30 29 30 30 29 28 28 27 23 19 17 14 10 7
25 25 23 19 16 14 13 13 13 14 14 14 13 12 13 13 13 14 14 13 13 12 11 12 12 13 13 13 13 13 14 15 15 16 16 18 19 20 21 23 24 25 26 27 29 30 32 33 35 36 38 39 40 41 43 43 44 44 44 44 44 43 43 42 42 43 44 46 46 43 38 32 27 26 27 27 26 26 26 24 21 18 16 13 10
26 23 19 15 14 14 13 14 14 14 14 13 13 12 12 13 13 13 12 12 11 11 11 11 11 11 12 13 14 14 14 15 16 17 18 19 20 20 21 22 23 24 26 27 29 30 31 33 34 35 37 38 39 40 41 42 42 43 44 44 43 43 42 42 41 41 41 42 44 44 43 39 31 25 23 24 24 23 22 21 20 18 16 14 11
24 19 15 13 14 14 14 14 15 15 14 13 12 12 12 12 12 11 11 11 11 11 12 12 11 11 11 12 13 14 14 15 16 17 18 19 20 21 21 22 23 25 26 27 29 30 31 32 33 35 36 37 38 39 39 40 41 42 42 42 42 42 42 41 41 40 39 39 40 41 42 42 38 31 24 21 21 21 20 18 16 15 13 11 9
19 14 13 14 14 15 15 15 15 15 14 13 13 12 12 11 10 10 10 11 11 12 12 12 12 13 13 13 13 13 14 15 15 16 17 19 20 21 22 23 24 25 26 27 28 29 30 31 32 34 35 36 37 38 38 39 40 40 41 41 41 42 41 41 40 40 39 38 38 38 39 40 40 38 32 24 20 18 17 16 14 12 11 10 7
15 13 14 15 15 16 16 16 16 15 14 14 13 12 11 10 9 9 9 10 11 12 12 12 12 13 14 15 15 15 16 16 17 17 18 19 20 21 22 24 25 26 27 27 28 29 30 31 32 33 34 35 36 37 37 38 38 39 39 40 40 40 41 40 40 39 39 38 37 37 36 36 37 38 37 34 28 22 17 15 14 12 11 9 7
14 14 15 16 16 16 17 16 16 16 15 15 14 12 11 9 9 8 9 10 10 11 12 12 12 12 14 16 18 18 18 19 19 20 20 21 21 22 23 24 25 26 27 28 28 29 30 31 32 32 33 34 35 36 36 37 37 38 38 38 39 39 39 39 39 39 38 37 37 36 35 35 35 35 35 36 35 31 26 20 15 12 10 9 8
16 16 16 16 17 17 18 17 17 17 16 16 15 12 11 10 9 9 9 10 10 11 12 13 13 13 14 16 18 20 20 21 21 22 23 23 23 24 24 24 25 26 27 28 28 29 30 31 32 32 33 34 35 35 36 36 36 36 37 37 38 38 38 38 38 38 37 36 36 35 35 34 34 33 33 33 33 33 32 29 24 19 14 11 9
16 16 17 17 18 18 18 18 18 18 17 17 15 13 12 11 10 10 10 11 12 13 13 14 15 15 15 16 18 20 21 22 23 24 24 25 25 26 26 26 27 27 27 28 29 29 30 31 31 32 33 33 34 35 35 36 36 36 36 36 36 36 37 36 36 36 36 36 35 34 34 33 33 32 31 31 31 30 30 31 30 28 23 18 14
17 17 18 19 19 19 20 20 20 19 19 18 17 16 15 14 13 13 13 13 14 14 15 15 16 17 17 18 19 20 22 23 24 25 26 26 26 26 27 27 28 28 29 29 29 30 30 31 31 32 32 33 33 34 35 35 35 35 35 35 35 35 35 35 35 35 35 35 35 34 33 33 32 31 31 30 30 29 28 28 28 28 28 26 23
20 19 19 20 20 20 20 21 20 20 20 19 19 18 17 16 16 16 15 16 16 16 17 17 18 18 19 20 20 21 23 24 25 26 26 27 27 27 27 27 28 29 30 31 31 31 30 31 31 32 32 33 33 34 34 34 35 35 35 35 34 34 34 34 34 34 34 34 34 34 33 32 31 31 30 29 29 28 28 27 26 26 26 25 25
22 20 20 21 21 21 21 21 21 21 21 20 20 20 20 19 18 18 18 18 18 19 19 20 21 21 21 22 23 23 24 26 27 27 28 28 28 28 28 28 28 29 29 31 32 33 33 32 32 32 33 33 33 33 34 34 34 34 35 35 34 34 34 33 33 33 33 33 32 32 32 32 32 31 30 29 28 28 27 27 26 26 25 24 23
23 21 21 22 22 22 22 22 22 21 21 21 22 22 22 21 21 20 20 20 20 21 21 22 23 24 25 25 26 27 27 28 28 28 28 28 28 29 29 29 28 29 29 30 31 32 34 34 34 33 33 33 33 33 33 34 34 34 34 34 34 34 33 33 33 32 32 32 32 31 31 31 31 31 30 29 28 27 26 25 25 25 24 24 23
22 22 22 22 22 22 22 23 23 22 22 22 22 22 23 23 23 23 23 23 23 23 23 23 24 26 26 27 28 30 31 31 31 30 30 29 29 29 30 30 30 30 30 30 31 31 32 33 34 35 34 34 34 34 34 34 34 34 33 33 33 33 33 33 32 32 32 31 31 31 30 30 30 30 30 29 28 27 26 25 24 24 23 23 22
21 22 22 22 22 23 23 24 24 23 23 23 23 23 24 24 24 25 25 25 26 26 26 26 27 27 28 28 29 31 32 33 32 32 31 31 30 31 31 32 32 32 32 31 31 32 31 31 32 34 34 34 34 34 35 35 34 34 33 33 33 33 33 33 32 32 31 31 31 30 30 29 29 29 29 29 28 28 27 26 25 24 23 22 21
19 20 21 22 23 24 24 25 25 24 24 24 24 24 25 25 26 26 27 27 28 28 28 29 29 30 30 31 32 32 33 33 33 33 32 32 32 33 33 34 35 35 35 33 33 33 33 32 32 32 34 35 34 34 34 35 36 35 34 33 33 32 32 32 32 32 31 31 30 30 30 29 29 28 28 28 28 28 27 26 26 25 23 22 21
Wind_Direction
281 283 284 284 284 284 284 284 286 288 290 293 294 295 296 297 297 298 298 298 298 297 296 296 296 296 295 295 296 296 296 297 298 299 300 301 301 302 303 303 304 304 303 303 303 303 303 303 303 303 303 303 303 302 301 300 299 298 297 296 295 294 292 290 288 285 284 283 280 278 276 274 272 270 268 266 265 264 264 264 264 264 263 262 262
276 279 280 280 280 281 282 283 285 288 291 292 293 295 296 297 298 298 298 298 297 297 297 297 297 297 297 297 297 297 298 299 300 301 301 302 303 303 304 304 303 303 303 304 304 304 304 305 305 304 304 303 302 302 301 300 299 298 297 296 295 294 292 291 289 287 284 283 281 279 277 275 273 271 269 266 264 263 262 262 262 262 262 262 260
273 276 278 278 279 280 282 284 286 289 291 292 293 295 296 298 299 299 298 297 297 297 297 298 298 299 299 298 298 299 300 300 301 302 302 303 303 303 303 303 304 304 304 305 305 305 306 306 305 305 304 303 302 302 301 300 299 298 297 296 295 293 292 291 289 287 285 283 282 279 277 275 273 272 270 268 265 263 261 260 261 260 259 260 258
272 275 277 278 280 281 283 285 287 289 291 292 294 296 298 299 299 298 297 296 295 296 297 298 299 299 299 299 299 300 300 301 302 303 303 303 304 304 304 305 305 305 305 306 306 307 307 306 306 305 305 304 303 302 301 301 300 299 298 297 295 294 293 291 290 288 286 283 282 280 278 276 274 272 270 268 265 264 261 259 258 258 257 257 257
273 275 277 280 281 282 284 286 287 289 291 293 296 298 299 299 298 297 295 295 295 296 297 298 299 299 300 300 300 300 301 302 303 303 304 304 305 306 306 306 306 307 307 308 308 308 307 307 306 306 305 305 304 304 303 302 302 301 299 298 297 295 294 293 291 290 288 285 283 281 279 276 275 274 272 269 266 263 261 260 258 257 256 255 256
275 276 278 280 281 283 285 286 287 289 292 295 297 299 299 298 297 296 295 295 295 296 298 299 300 300 300 300 301 302 303 304 304 305 306 307 307 307 307 308 308 309 309 309 309 308 308 307 307 307 307 306 306 305 305 304 303 302 300 299 298 296 295 293 292 290 289 287 285 283 281 278 276 274 274 272 269 264 261 259 257 256 255 253 253
276 277 278 279 281 282 284 285 287 290 293 296 298 298 298 298 296 296 295 295 296 297 299 300 301 301 301 302 303 304 305 306 307 308 308 308 308 308 309 310 310 310 310 309 309 309 308 308 308 308 308 308 307 307 306 305 304 302 301 300 298 297 295 294 292 291 289 287 286 283 281 279 277 275 273 272 271 268 263 258 255 255 255 253 251
275 275 276 278 280 281 282 284 287 290 294 296 297 298 298 297 297 296 295 296 297 298 300 301 301 302 303 304 305 306 308 309 310 309 309 309 309 310 311 311 311 310 310 309 309 309 310 310 310 310 310 309 309 308 307 306 305 303 302 301 299 298 296 295 293 291 290 288 286 283 281 279 276 274 273 271 269 268 266 262 256 253 253 252 251
272 273 275 277 278 279 282 285 287 290 293 295 297 298 298 297 296 295 295 296 298 299 300 301 303 304 305 305 307 309 310 311 311 310 310 310 311 311 311 311 310 310 310 311 311 311 311 311 312 312 311 311 310 309 308 307 306 305 304 302 301 300 299 297 295 293 292 289 287 285 282 279 277 274 272 269 267 266 265 264 260 254 251 250 250
270 273 275 276 277 279 281 284 287 290 292 295 297 297 297 297 296 295 296 297 298 299 301 302 304 304 305 307 309 311 311 311 310 310 311 311 311 311 311 310 310 311 312 312 312 313 313 313 313 313 313 312 311 310 310 309 308 308 307 305 304 303 301 300 298 296 294 292 290 287 284 281 278 275 272 269 266 264 262 261 260 257 252 248 247
270 272 274 275 276 278 281 283 286 289 292 294 296 296 296 296 296 296 297 297 298 300 301 303 303 304 305 308 311 311 311 311 311 311 311 311 311 311 311 311 312 313 313 314 314 314 315 315 314 314 313 313 312 312 311 311 311 310 309 308 307 306 304 302 301 299 297 295 293 290 287 283 280 276 273 270 266 263 261 258 257 256 253 248 245
270 272 273 274 275 278 280 282 285 288 291 294 295 296 296 296 297 297 297 297 298 300 301 302 302 303 306 309 311 311 311 311 311 311 311 311 311 311 312 313 314 315 315 315 316 316 316 315 315 315 314 314 314 314 314 314 313 312 311 310 309 308 307 305 303 301 299 296 294 291 288 284 280 277 273 270 266 263 259 257 255 253 251 248 245
269 270 271 273 275 277 279 282 285 288 291 293 294 295 296 296 296 296 296 296 297 299 300 300 301 304 308 310 311 310 310 311 311 311 311 311 312 313 314 315 315 316 317 317 317 317 316 316 317 316 316 316 317 317 316 316 315 314 313 312 311 310 309 308 306 304 301 298 296 293 290 286 282 278 274 270 266 261 258 255 253 251 249 247 243
267 268 270 272 275 276 278 281 285 288 290 293 294 294 295 295 295 295 295 296 296 297 298 299 302 306 309 310 310 310 310 311 311 312 312 312 314 315 315 316 317 317 318 318 318 318 318 318 318 318 319 320 320 319 319 317 316 315 314 314 313 313 312 310 309 306 304 303 301 299 296 292 288 283 278 273 267 262 257 253 250 249 246 244 241
266 267 269 272 273 275 278 282 285 288 291 293 293 293 293 294 294 295 295 294 295 296 297 299 304 308 309 309 309 310 311 311 312 312 313 314 315 316 317 317 318 319 319 320 320 320 320 320 321 322 323 323 322 322 320 319 318 317 318 319 319 318 316 314 311 310 309 309 308 306 303 300 297 292 286 280 272 266 259 252 248 245 244 241 239
265 267 269 270 272 275 278 282 286 289 291 292 292 292 293 293 293 293 293 294 295 296 297 300 305 308 309 309 309 310 311 312 312 313 315 316 317 317 318 319 319 320 321 321 322 322 322 323 324 325 325 325 325 324 322 321 321 322 324 325 324 322 320 317 316 316 315 313 313 312 310 307 304 301 296 288 281 273 265 256 248 243 240 238 236
265 267 268 269 272 274 278 283 286 289 290 290 291 292 293 293 292 292 293 293 294 296 298 301 305 307 308 308 310 311 312 313 314 316 317 318 318 318 319 320 321 321 322 323 324 324 325 326 327 327 328 328 327 326 325 326 327 328 330 330 328 326 322 321 322 321 319 318 318 319 317 313 310 309 305 299 294 285 272 261 251 244 238 234 232
264 266 267 268 271 274 279 283 286 288 288 289 290 291 292 292 291 292 292 293 295 296 298 302 305 307 308 309 311 312 313 315 316 318 318 319 319 319 320 321 322 323 324 325 325 326 327 328 329 330 331 330 329 329 330 331 332 333 334 334 332 328 325 327 329 327 324 322 322 322 320 314 312 312 308 304 302 295 281 267 256 246 237 232 229
263 265 266 267 270 274 279 283 285 286 287 287 289 290 290 290 290 291 292 293 294 296 299 302 305 307 308 310 312 313 315 317 318 319 319 319 320 321 321 322 324 325 326 327 328 329 330 331 332 333 333 332 333 334 334 335 337 338 338 337 335 331 331 335 336 334 330 325 323 322 319 313 309 309 308 304 301 297 288 275 263 248 237 230 226
262 263 264 267 271 275 280 282 284 285 286 287 288 288 288 289 289 291 292 293 295 297 300 302 305 307 309 311 313 315 317 318 319 319 319 320 321 321 322 324 325 327 328 329 331 332 332 333 335 335 335 336 337 338 338 339 341 342 342 340 337 335 337 340 343 342 335 327 323 323 321 317 311 308 309 309 305 301 292 280 267 252 238 229 223
260 262 264 268 272 276 278 280 282 284 285 286 287 287 287 287 288 290 292 294 295 297 300 302 305 307 310 311 314 316 318 319 319 319 320 320 321 322 324 326 328 329 331 332 333 333 334 336 336 337 338 340 341 341 341 343 345 345 345 343 341 339 339 341 345 346 341 333 329 327 326 325 322 316 314 314 311 307 297 283 270 254 239 227 220
260 263 266 269 273 275 276 278 281 283 285 286 286 286 286 287 288 291 292 293 294 297 300 303 306 309 311 313 316 317 318 319 319 319 320 321 322 324 327 329 331 332 334 335 335 335 337 337 338 340 343 344 344 343 344 347 348 349 348 347 344 341 338 338 342 345 345 341 338 336 334 333 332 329 326 321 316 312 305 292 277 257 238 225 217
261 264 267 270 272 274 275 277 279 282 284 285 285 285 285 286 288 290 290 290 293 298 302 305 307 310 312 315 317 317 318 319 319 320 321 323 325 328 331 332 334 335 336 337 337 339 339 339 341 345 346 346 345 346 348 350 351 352 351 350 348 344 339 338 340 344 347 345 344 345 341 336 336 339 340 336 326 319 320 317 296 263 235 221 212
261 265 268 269 271 273 275 276 278 280 283 284 284 284 284 285 286 286 286 290 296 301 304 306 308 311 313 315 316 317 318 319 320 322 324 326 329 332 333 335 336 338 339 340 341 341 341 343 346 349 348 348 348 349 351 353 355 355 353 353 352 348 344 342 342 346 350 349 350 351 345 340 341 343 345 349 344 334 344 353 326 282 232 214 207
261 264 266 268 270 272 274 277 279 280 283 284 284 283 282 281 282 283 288 295 300 302 305 307 309 312 313 314 316 318 320 321 323 325 327 330 333 334 336 338 339 341 343 343 343 343 344 348 351 351 350 350 351 352 354 356 357 357 356 356 356 353 350 348 347 350 354 357 357 354 350 351 352 346 343 350 354 351 360 8 351 315 214 200 199
261 263 265 267 269 271 274 276 278 280 282 283 282 281 278 277 279 285 294 299 301 303 306 308 310 312 313 315 318 320 322 323 325 327 330 333 335 337 339 341 343 345 345 344 345 347 349 352 353 352 351 353 354 355 357 359 360 0 360 359 360 359 356 354 353 355 360 4 3 359 357 358 358 351 347 350 352 355 6 14 18 43 150 178 186
263 264 266 267 269 271 273 274 276 279 281 282 280 278 276 277 283 293 298 300 302 304 306 308 310 312 314 318 320 322 323 325 327 330 334 336 338 341 342 344 346 347 345 347 350 352 353 355 355 354 354 356 357 358 359 1 2 3 2 2 4 5 2 358 356 358 4 9 8 5 2 360 357 354 355 355 352 357 13 25 37 63 114 152 170
264 265 266 268 269 270 271 273 277 280 282 280 277 276 277 284 292 297 298 300 302 304 306 308 310 313 316 319 321 323 325 327 330 334 336 338 341 343 344 347 349 348 349 354 356 356 356 357 356 356 357 359 360 0 2 4 5 5 5 4 6 9 7 4 0 359 4 11 13 10 7 4 1 1 0 357 354 359 13 32 51 73 103 131 156
264 265 267 269 270 271 273 276 280 281 279 275 273 276 283 292 295 295 297 300 301 303 306 308 311 314 317 319 321 324 327 330 333 336 338 340 343 344 346 349 350 351 356 0 360 359 360 359 357 358 0 2 2 3 5 7 7 7 7 7 8 10 9 9 7 1 2 9 12 12 9 5 3 5 4 1 1 6 15 33 56 81 108 125 144
265 267 269 271 272 274 277 279 279 276 273 270 274 282 289 292 293 294 296 299 301 304 307 309 312 315 317 319 322 326 329 332 335 338 340 342 343 345 348 351 352 356 1 3 1 1 2 1 0 2 3 4 5 5 6 8 9 10 10 9 10 11 11 12 12 7 3 6 8 11 13 9 4 8 9 5 6 12 21 36 51 77 114 131 144
267 269 271 273 274 277 278 277 274 270 268 270 279 287 289 289 291 293 296 299 302 305 307 309 311 314 316 320 324 328 331 334 337 340 342 343 344 346 349 351 354 359 3 2 1 2 3 3 5 6 6 6 7 7 7 9 10 11 12 12 12 12 12 15 15 10 7 5 4 8 14 14 10 14 16 13 11 10 12 32 51 70 104 128 150
268 272 274 275 276 278 276 271 266 265 268 276 283 286 286 287 289 293 297 301 304 306 307 308 309 312 316 320 324 329 333 336 338 340 342 343 345 346 349 352 355 360 2 0 359 0 3 5 7 8 8 8 9 9 9 10 10 12 14 14 14 13 14 16 17 13 9 5 0 3 10 14 13 15 17 17 19 19 13 19 44 69 98 121 148
270 272 274 275 276 275 269 263 261 266 273 280 282 282 282 286 290 295 301 303 303 303 303 304 306 310 316 321 326 331 334 336 338 339 340 343 344 344 347 351 355 359 360 358 357 359 2 5 6 7 8 9 10 10 10 11 11 12 14 15 16 15 15 16 17 16 14 11 1 359 5 10 12 14 13 11 16 25 32 38 47 63 98 129 147
268 268 269 271 269 264 259 258 265 273 277 278 278 278 281 286 293 299 301 301 300 300 300 301 304 309 314 320 325 330 333 335 336 338 341 342 342 342 346 351 354 357 357 355 355 359 3 4 5 6 7 8 9 10 11 12 12 12 14 15 17 17 17 16 17 17 18 18 9 360 1 6 8 13 16 15 13 18 27 39 53 64 79 113 145
265 264 263 261 257 253 255 263 271 274 273 273 274 277 282 289 294 297 298 297 297 296 295 297 301 306 312 318 323 327 330 332 334 337 339 339 339 342 346 349 351 354 354 353 355 359 2 3 4 5 6 6 8 9 11 12 12 12 13 15 17 18 19 18 18 18 19 20 16 7 2 3 4 9 15 16 14 14 16 19 26 34 46 70 98
264 261 255 249 248 252 261 267 268 269 269 270 273 277 282 289 293 294 295 295 294 293 293 294 297 302 308 313 318 322 325 329 332 334 335 335 338 341 344 346 349 350 351 351 354 357 360 1 2 3 4 5 6 7 9 11 12 12 13 14 16 18 19 20 20 20 20 21 20 15 8 4 3 5 8 10 12 14 17 18 17 16 20 32 46
259 251 245 244 249 257 262 264 265 265 266 267 271 275 280 285 289 290 291 290 289 289 291 293 296 301 304 308 314 319 323 326 328 329 331 334 337 340 341 343 345 346 347 349 353 355 357 359 360 1 3 3 5 6 7 9 10 12 13 14 15 16 18 19 21 22 21 21 22 21 17 11 5 2 3 4 5 8 14 21 25 20 16 19 21
246 242 242 246 253 259 262 263 261 260 261 264 267 272 277 282 285 286 286 284 281 280 282 285 290 296 301 307 313 317 322 325 326 328 331 334 335 337 338 339 340 341 344 348 350 353 355 356 357 359 1 2 3 4 5 7 8 10 11 13 14 15 17 19 20 22 23 23 23 23 23 20 14 6 360 359 1 2 7 17 24 24 23 24 21
238 238 244 251 256 259 260 258 255 255 256 259 264 270 275 278 280 282 281 280 279 279 281 283 286 289 294 300 307 313 318 322 325 327 329 329 329 331 333 334 336 340 343 345 347 350 352 354 355 357 358 360 1 3 4 5 6 7 9 11 12 13 15 17 19 20 23 24 24 24 25 24 22 17 9 359 356 358 1 7 13 17 19 22 20
235 241 248 253 255 256 255 253 252 252 253 256 261 266 270 271 275 278 278 277 277 278 281 284 287 291 294 296 300 305 310 313 317 319 320 323 326 329 330 332 335 339 341 343 344 347 349 351 353 354 356 358 359 1 2 3 4 5 6 8 10 11 13 15 17 18 20 23 25 26 26 26 25 24 22 16 6 359 357 359 2 5 9 14 16
245 251 253 254 256 255 252 249 248 247 250 254 256 259 262 266 271 274 274 275 277 278 281 285 288 292 297 299 301 304 306 309 313 316 319 322 326 328 329 332 334 336 338 339 341 343 345 347 350 351 353 355 356 358 360 1 2 3 4 5 7 9 10 12 14 16 18 20 23 25 27 27 26 26 27 26 22 16 7 360 356 357 2 7 10
257 258 255 256 256 252 246 244 244 245 247 250 250 252 256 260 264 268 271 274 276 278 281 286 290 293 298 301 304 307 309 311 313 316 318 321 323 325 328 330 332 333 334 335 337 339 341 343 346 348 349 351 353 354 357 359 360 1 2 3 4 5 7 9 11 13 15 17 19 22 24 27 27 27 27 28 28 26 23 17 8 359 354 354 359
261 261 258 256 252 245 241 240 241 241 243 245 246 247 250 252 256 261 266 270 274 278 281 286 291 295 299 302 306 309 311 313 314 315 317 319 320 323 325 327 328 329 330 331 333 336 337 339 341 343 345 347 348 350 352 354 357 358 359 0 1 2 4 5 7 9 11 14 16 18 20 23 26 27 27 28 29 28 28 26 24 19 10 360 353
262 262 258 253 246 240 238 239 238 238 239 241 243 244 245 248 251 255 260 266 272 277 282 287 292 296 300 303 307 309 311 313 314 315 316 317 318 320 321 323 324 325 327 328 330 331 333 335 336 338 340 342 344 346 347 349 352 354 356 358 359 359 0 2 3 5 7 9 12 14 16 19 22 24 26 27 28 29 29 29 28 27 25 21 14
265 259 253 247 242 238 236 235 235 236 238 240 243 244 246 249 252 255 261 267 272 277 283 288 292 297 301 304 307 309 311 313 314 314 314 314 315 316 317 319 320 322 323 325 326 327 329 330 331 333 335 337 339 341 343 344 346 349 351 354 356 357 357 358 360 1 3 5 7 9 12 15 17 19 21 24 26 27 28 29 30 30 29 28 27
263 255 248 243 240 237 235 234 236 238 239 241 244 246 249 253 257 261 266 270 274 278 283 286 290 294 298 301 304 307 309 311 311 311 311 311 311 312 314 315 317 319 320 321 322 323 324 326 327 328 330 332 334 336 338 339 341 344 346 349 351 353 354 355 356 357 359 0 2 3 6 9 12 14 16 19 22 24 25 27 28 29 30 30 30
258 251 244 240 238 237 235 235 237 239 241 244 247 249 252 256 260 263 268 272 276 280 284 288 291 294 296 299 302 305 307 309 309 310 310 310 310 310 311 312 314 315 317 319 319 320 321 322 323 324 325 327 329 331 332 334 336 339 341 343 345 348 350 352 353 354 355 356 357 358 360 2 5 8 10 13 16 19 21 22 24 25 27 28 29
255 247 240 237 237 236 236 237 239 241 244 247 250 252 255 258 262 265 269 272 276 280 283 287 291 294 297 300 303 304 306 307 307 307 308 308 307 307 307 308 309 310 312 314 316 317 318 318 319 319 321 322 324 326 328 329 331 334 336 338 340 342 344 347 348 350 351 351 352 354 355 356 358 0 3 6 9 12 16 18 19 22 23 23 24
251 244 239 237 236 236 236 238 241 244 248 251 253 255 258 261 264 268 271 273 276 279 282 284 288 291 294 298 302 304 305 306 306 306 306 306 305 305 304 305 305 306 307 308 310 311 312 314 315 316 317 319 321 322 323 325 326 328 331 332 334 336 338 341 343 345 346 347 348 349 350 351 352 353 355 358 0 3 7 10 13 16 18 20 21
247 242 237 236 236 236 237 239 242 246 250 254 256 258 261 263 266 269 272 274 277 280 282 285 287 289 292 295 298 300 302 303 303 304 304 303 303 302 302 302 302 303 304 305 306 307 308 309 311 312 313 315 317 319 320 321 322 324 326 328 329 331 333 335 337 339 340 342 343 343 344 346 347 348 348 350 352 355 358 1 3 6 10 12 14
244 242 240 239 239 239 240 242 244 247 251 254 257 260 262 264 267 269 271 274 277 280 283 286 289 291 294 296 297 298 299 300 301 301 301 301 302 302 302 302 302 303 304 305 305 306 307 308 310 310 311 313 314 316 317 317 318 320 322 323 325 326 327 329 331 332 334 336 337 338 339 339 340 342 343 344 345 346 349 351 353 356 359 2 4
Height
5798 5798 5797 5797 5797 5797 5796 5796 5795 5795 5794 5793 5792 5791 5790 5789 5787 5786 5784 5782 5781 5779 5778 5776 5774 5772 5770 5769 5767 5765 5763 5761 5759 5758 5755 5753 5751 5749 5746 5744 5741 5739 5736 5733 5731 5728 5725 5722 5719 5716 5714 5711 5708 5705 5702 5700 5697 5695 5692 5690 5688 5685 5684 5682 5682 5683 5684 5682 5679 5679 5677 5677 5678 5677 5676 5677 5676 5676 5675 5675 5675 5677 5678 5680 5683
5796 5795 5795 5795 5795 5794 5794 5793 5793 5792 5791 5790 5789 5788 5787 5785 5783 5782 5780 5779 5777 5775 5774 5772 5770 5768 5766 5765 5763 5761 5759 5757 5755 5753 5751 5749 5746 5744 5741 5739 5736 5734 5731 5728 5725 5722 5719 5716 5713 5710 5707 5704 5701 5699 5696 5693 5690 5688 5685 5682 5680 5678 5675 5673 5672 5673 5674 5673 5671 5669 5668 5668 5667 5667 5666 5667 5667 5667 5667 5667 5667 5668 5670 5672 5674
5793 5793 5793 5793 5792 5792 5791 5790 5790 5789 5788 5787 5786 5784 5783 5781 5780 5778 5776 5775 5773 5771 5770 5768 5766 5765 5763 5761 5759 5757 5756 5753 5751 5749 5747 5744 5742 5739 5737 5734 5731 5729 5726 5723 5720 5717 5714 5710 5707 5704 5701 5697 5694 5692 5689 5686 5683 5680 5677 5674 5672 5670 5667 5664 5663 5662 5663 5663 5662 5660 5658 5658 5658 5656 5656 5656 5657 5657 5659 5659 5658 5659 5661 5662 5665
5791 5791 5791 5790 5790 5789 5788 5787 5786 5786 5785 5784 5782 5781 5779 5778 5776 5774 5772 5771 5769 5767 5766 5764 5763 5761 5759 5757 5755 5754 5751 5749 5747 5745 5742 5740 5738 5735 5732 5729 5726 5723 5720 5717 5714 5711 5708 5705 5701 5697 5694 5690 5687 5684 5681 5678 5675 5671 5669 5666 5663 5661 5659 5656 5654 5653 5652 5653 5652 5650 5648 5647 5647 5646 5645 5646 5647 5647 5648 5649 5649 5650 5652 5653 5656
5788 5788 5788 5787 5787 5786 5785 5784 5783 5782 5781 5780 5779 5777 5776 5774 5772 5770 5769 5767 5765 5764 5762 5760 5759 5757 5755 5753 5752 5750 5748 5745 5743 5741 5738 5736 5733 5730 5727 5724 5721 5718 5715 5711 5708 5705 5702 5698 5695 5691 5687 5683 5680 5677 5674 5670 5667 5663 5660 5658 5655 5652 5650 5647 5645 5643 5642 5642 5642 5641 5638 5636 5636 5635 5634 5634 5636 5637 5637 5638 5640 5641 5643 5645 5646
5785 5785 5784 5784 5783 5782 5781 5780 5779 5779 5778 5776 5775 5773 5772 5770 5768 5766 5765 5763 5762 5760 5758 5757 5755 5753 5751 5750 5748 5746 5743 5741 5739 5737 5734 5731 5728 5725 5722 5719 5716 5712 5709 5706 5702 5699 5695 5692 5688 5684 5680 5676 5673 5670 5667 5663 5659 5656 5652 5649 5646 5644 5641 5639 5636 5634 5633 5632 5631 5630 5628 5626 5624 5624 5623 5622 5623 5625 5626 5628 5630 5631 5632 5635 5637
5782 5781 5781 5780 5779 5778 5778 5777 5776 5775 5774 5772 5771 5769 5768 5766 5764 5763 5761 5760 5758 5757 5755 5753 5751 5749 5748 5746 5744 5742 5740 5737 5735 5732 5730 5727 5724 5721 5717 5714 5711 5707 5704 5700 5697 5693 5690 5686 5682 5679 5674 5670 5666 5662 5659 5656 5652 5647 5644 5641 5638 5635 5632 5630 5627 5624 5623 5622 5621 5620 5618 5616 5613 5612 5612 5611 5611 5612 5613 5616 5620 5621 5622 5624 5627
5779 5778 5777 5776 5776 5775 5774 5773 5772 5771 5770 5769 5767 5765 5764 5762 5761 5759 5757 5756 5755 5753 5751 5749 5747 5746 5744 5742 5740 5738 5736 5733 5730 5728 5725 5722 5719 5716 5712 5709 5706 5702 5699 5695 5691 5688 5684 5680 5676 5673 5668 5664 5659 5655 5651 5648 5644 5640 5635 5632 5629 5626 5623 5620 5617 5615 5613 5611 5610 5609 5607 5606 5602 5600 5600 5600 5600 5600 5600 5602 5607 5612 5612 5613 5616
5775 5774 5774 5773 5772 5771 5771 5770 5769 5767 5766 5765 5763 5762 5760 5758 5757 5755 5754 5752 5751 5749 5748 5746 5744 5742 5740 5738 5736 5734 5732 5729 5726 5723 5721 5718 5714 5711 5708 5705 5701 5698 5694 5690 5686 5682 5678 5674 5670 5666 5662 5657 5652 5648 5643 5639 5636 5632 5627 5623 5620 5616 5613 5610 5606 5604 5602 5600 5598 5597 5595 5593 5591 5588 5587 5587 5587 5588 5589 5590 5593 5598 5602 5604 5606
5771 5771 5770 5769 5769 5768 5767 5766 5765 5764 5762 5761 5760 5758 5756 5755 5753 5752 5750 5749 5747 5746 5744 5742 5740 5739 5737 5735 5733 5730 5728 5725 5722 5719 5716 5713 5710 5707 5704 5700 5696 5693 5689 5685 5681 5677 5672 5668 5664 5660 5656 5652 5647 5642 5637 5633 5628 5624 5619 5614 5610 5606 5603 5599 5595 5592 5589 5587 5585 5583 5581 5580 5578 5574 5573 5573 5573 5575 5576 5578 5580 5584 5588 5593 5597
5767 5767 5766 5765 5765 5764 5763 5762 5761 5760 5759 5757 5756 5754 5753 5751 5750 5748 5747 5745 5744 5742 5740 5739 5737 5735 5733 5731 5729 5726 5724 5721 5718 5715 5712 5709 5706 5702 5699 5696 5692 5688 5684 5680 5676 5671 5667 5663 5659 5655 5651 5647 5642 5637 5632 5627 5622 5617 5612 5606 5601 5596 5592 5588 5585 5581 5577 5574 5571 5568 5566 5565 5563 5561 5558 5558 5559 5561 5562 5564 5567 5570 5574 5580 5587
5763 5763 5762 5762 5761 5761 5760 5759 5757 5756 5755 5753 5752 5750 5749 5748 5746 5745 5743 5742 5740 5738 5737 5735 5733 5731 5730 5728 5725 5723 5720 5717 5714 5711 5708 5705 5701 5698 5694 5691 5687 5683 5679 5675 5671 5666 5662 5658 5654 5650 5646 5642 5638 5633 5627 5623 5617 5612 5606 5600 5594 5588 5582 5577 5572 5568 5564 5560 5557 5553 5550 5548 5547 5546 5543 5542 5544 5546 5548 5550 5553 5557 5561 5567 5574
5760 5759 5759 5758 5758 5757 5756 5755 5754 5752 5751 5750 5748 5747 5745 5744 5743 5741 5740 5738 5736 5735 5733 5731 5730 5728 5726 5724 5721 5719 5716 5713 5710 5707 5704 5700 5697 5693 5690 5686 5682 5678 5674 5670 5666 5661 5658 5654 5649 5645 5641 5637 5632 5628 5623 5618 5612 5607 5601 5595 5588 5581 5575 5567 5560 5554 5549 5544 5541 5538 5533 5531 5530 5529 5527 5525 5527 5530 5532 5536 5539 5542 5548 5554 5561
5756 5755 5755 5754 5754 5753 5752 5751 5750 5749 5747 5746 5745 5743 5742 5740 5739 5738 5736 5734 5733 5731 5730 5728 5726 5724 5722 5720 5718 5715 5712 5709 5706 5703 5699 5696 5693 5689 5685 5681 5677 5674 5670 5666 5661 5657 5652 5649 5645 5640 5636 5632 5627 5623 5618 5613 5607 5602 5596 5589 5582 5574 5566 5559 5551 5544 5537 5531 5527 5524 5520 5517 5515 5514 5512 5510 5510 5513 5516 5521 5524 5527 5533 5540 5547
5752 5752 5751 5751 5750 5749 5748 5747 5746 5745 5744 5742 5741 5739 5738 5737 5735 5734 5732 5731 5729 5728 5726 5724 5722 5720 5718 5716 5713 5711 5708 5705 5702 5699 5695 5692 5688 5684 5681 5677 5673 5669 5665 5662 5657 5653 5648 5644 5640 5636 5632 5627 5622 5618 5613 5608 5602 5596 5590 5582 5574 5565 5557 5549 5542 5536 5530 5525 5519 5515 5511 5508 5505 5503 5501 5499 5498 5498 5501 5505 5509 5513 5518 5525 5534
5748 5748 5747 5747 5746 5745 5744 5743 5742 5741 5740 5738 5737 5736 5734 5733 5732 5730 5729 5727 5726 5724 5722 5721 5719 5716 5714 5712 5709 5706 5704 5701 5697 5694 5691 5687 5684 5680 5676 5673 5669 5665 5661 5657 5653 5649 5645 5640 5636 5632 5628 5623 5618 5613 5608 5602 5596 5590 5583 5575 5566 5557 5549 5542 5536 5530 5525 5520 5515 5509 5505 5501 5498 5495 5492 5489 5489 5489 5489 5491 5494 5498 5503 5512 5522
5744 5743 5743 5743 5742 5741 5741 5740 5739 5737 5736 5735 5733 5732 5731 5729 5728 5726 5725 5724 5722 5720 5719 5717 5715 5713 5710 5708 5705 5702 5699 5696 5693 5690 5686 5683 5680 5676 5673 5669 5665 5662 5658 5654 5650 5646 5642 5637 5633 5629 5624 5619 5614 5609 5603 5597 5590 5583 5576 5568 5559 5551 5544 5539 5533 5527 5521 5516 5511 5506 5500 5496 5493 5490 5486 5483 5481 5480 5480 5482 5483 5485 5492 5502 5512
5739 5739 5739 5738 5738 5737 5737 5736 5735 5733 5732 5731 5729 5728 5727 5725 5724 5723 5721 5720 5718 5717 5715 5713 5711 5709 5707 5704 5701 5698 5695 5692 5689 5686 5683 5679 5676 5673 5669 5666 5662 5658 5655 5651 5647 5643 5639 5634 5630 5625 5620 5615 5610 5604 5598 5592 5585 5577 5570 5561 5553 5546 5541 5536 5531 5526 5519 5513 5508 5503 5498 5493 5489 5486 5483 5479 5476 5473 5472 5473 5474 5476 5482 5491 5501
5735 5735 5735 5734 5734 5734 5733 5732 5731 5729 5728 5727 5725 5724 5723 5722 5720 5719 5717 5716 5715 5713 5711 5709 5707 5705 5703 5700 5697 5695 5692 5689 5685 5682 5679 5676 5673 5669 5666 5663 5659 5656 5652 5648 5644 5640 5636 5631 5627 5622 5616 5611 5606 5600 5593 5587 5580 5572 5564 5555 5548 5543 5538 5533 5528 5522 5516 5511 5506 5501 5495 5491 5487 5483 5480 5476 5473 5469 5466 5466 5467 5469 5473 5481 5490
5731 5731 5730 5730 5730 5729 5729 5728 5727 5725 5724 5723 5722 5720 5719 5718 5716 5715 5714 5712 5711 5709 5708 5706 5704 5702 5699 5697 5694 5691 5688 5685 5682 5679 5676 5673 5670 5667 5664 5660 5657 5653 5649 5646 5641 5637 5633 5628 5624 5619 5614 5608 5602 5596 5589 5582 5575 5567 5558 5551 5544 5539 5535 5530 5524 5519 5513 5508 5503 5498 5492 5488 5484 5481 5477 5474 5470 5466 5463 5461 5461 5463 5466 5473 5481
5727 5726 5726 5726 5726 5725 5724 5723 5722 5721 5720 5719 5718 5717 5715 5714 5713 5711 5710 5709 5707 5706 5704 5702 5701 5698 5696 5694 5691 5688 5685 5682 5679 5677 5674 5671 5668 5665 5661 5658 5655 5651 5647 5643 5639 5635 5631 5626 5621 5616 5611 5605 5599 5592 5586 5579 5571 5563 5554 5547 5540 5536 5532 5527 5522 5516 5510 5504 5499 5494 5489 5485 5482 5478 5475 5471 5467 5463 5460 5458 5458 5459 5462 5467 5475
5722 5722 5722 5722 5722 5721 5720 5719 5718 5717 5716 5715 5714 5713 5712 5710 5709 5708 5706 5705 5703 5702 5701 5699 5697 5695 5693 5690 5687 5685 5682 5680 5677 5674 5671 5669 5666 5662 5659 5656 5652 5648 5645 5641 5637 5633 5629 5624 5619 5614 5608 5602 5596 5590 5584 5576 5568 5560 5552 5544 5538 5534 5529 5525 5520 5515 5509 5502 5497 5492 5488 5485 5481 5477 5473 5468 5464 5461 5458 5456 5455 5456 5459 5463 5470
5718 5718 5718 5718 5717 5716 5715 5715 5714 5713 5712 5711 5710 5709 5708 5707 5705 5704 5703 5701 5700 5699 5697 5696 5694 5692 5690 5687 5684 5682 5679 5677 5674 5672 5669 5666 5663 5660 5657 5654 5650 5647 5643 5639 5635 5631 5627 5622 5617 5611 5606 5600 5595 5589 5582 5575 5567 5558 5550 5543 5537 5533 5529 5524 5520 5514 5508 5501 5496 5492 5488 5484 5480 5475 5471 5467 5463 5460 5457 5456 5455 5456 5458 5461 5468
5713 5714 5714 5713 5712 5712 5711 5710 5709 5708 5707 5707 5706 5705 5704 5703 5702 5700 5699 5698 5697 5695 5694 5693 5691 5689 5687 5684 5682 5680 5677 5674 5671 5669 5666 5664 5661 5658 5655 5652 5648 5645 5641 5638 5634 5629 5625 5620 5615 5610 5605 5600 5594 5587 5580 5573 5566 5557 5549 5542 5536 5532 5528 5524 5520 5514 5508 5501 5496 5492 5488 5483 5479 5474 5470 5466 5463 5460 5458 5457 5457 5457 5458 5461 5466
5709 5709 5709 5708 5708 5707 5706 5705 5705 5704 5703 5703 5702 5700 5700 5699 5698 5696 5695 5694 5693 5692 5691 5690 5688 5686 5684 5682 5679 5677 5674 5672 5669 5666 5664 5661 5659 5656 5653 5650 5647 5643 5640 5636 5632 5628 5624 5619 5614 5609 5604 5599 5593 5586 5579 5573 5565 5557 5549 5542 5536 5531 5527 5524 5520 5515 5508 5502 5497 5492 5488 5483 5479 5474 5470 5467 5465 5462 5461 5459 5459 5458 5459 5462 5467
5704 5704 5704 5703 5703 5702 5701 5701 5700 5699 5699 5698 5697 5696 5696 5695 5694 5693 5692 5691 5690 5689 5688 5687 5685 5683 5681 5679 5676 5674 5672 5669 5667 5664 5662 5660 5657 5655 5652 5649 5645 5642 5639 5635 5631 5627 5622 5618 5613 5609 5604 5598 5592 5585 5579 5573 5566 5558 5550 5543 5537 5532 5527 5524 5520 5516 5509 5503 5497 5493 5489 5484 5481 5477 5473 5470 5467 5465 5463 5462 5461 5461 5461 5464 5468
5699 5699 5699 5698 5698 5698 5697 5696 5695 5695 5695 5694 5693 5692 5692 5691 5690 5689 5689 5688 5687 5686 5685 5684 5682 5680 5678 5676 5674 5672 5669 5667 5665 5663 5660 5658 5656 5653 5650 5648 5644 5641 5638 5635 5630 5626 5622 5617 5613 5609 5603 5597 5591 5585 5579 5573 5566 5559 5551 5544 5538 5532 5528 5524 5520 5516 5511 5504 5499 5495 5491 5487 5483 5480 5477 5473 5470 5467 5466 5465 5464 5464 5465 5467 5471
5694 5694 5694 5694 5693 5692 5691 5691 5691 5691 5690 5690 5689 5688 5688 5687 5687 5686 5686 5685 5684 5683 5682 5681 5679 5677 5675 5673 5672 5670 5667 5665 5663 5661 5659 5657 5655 5652 5650 5647 5644 5641 5638 5634 5630 5626 5622 5617 5613 5609 5603 5597 5592 5586 5580 5573 5567 5560 5552 5545 5538 5533 5529 5525 5521 5517 5512 5506 5502 5498 5495 5491 5487 5484 5480 5476 5472 5470 5469 5468 5468 5468 5469 5471 5475
5690 5690 5689 5689 5688 5687 5686 5687 5687 5687 5686 5686 5685 5685 5685 5684 5684 5683 5683 5682 5682 5681 5679 5678 5676 5675 5673 5671 5669 5668 5665 5664 5662 5660 5658 5656 5654 5652 5649 5646 5644 5641 5637 5633 5629 5626 5622 5618 5614 5609 5603 5598 5592 5587 5581 5574 5568 5561 5554 5547 5540 5534 5530 5526 5522 5519 5514 5509 5505 5501 5497 5494 5491 5487 5483 5480 5476 5474 5473 5472 5472 5472 5473 5476 5479
5686 5685 5685 5684 5684 5683 5683 5683 5683 5682 5682 5682 5682 5682 5682 5681 5681 5681 5680 5679 5679 5678 5676 5675 5674 5672 5671 5669 5667 5666 5664 5662 5660 5659 5657 5655 5653 5651 5648 5646 5643 5640 5636 5632 5629 5625 5622 5618 5613 5608 5603 5598 5592 5587 5581 5575 5570 5563 5556 5550 5543 5536 5531 5527 5523 5520 5516 5512 5508 5504 5500 5496 5493 5490 5487 5484 5481 5478 5477 5476 5477 5477 5478 5480 5482
5681 5681 5680 5680 5679 5679 5679 5679 5679 5679 5679 5679 5679 5679 5679 5678 5678 5678 5677 5677 5676 5675 5673 5672 5671 5670 5669 5667 5666 5664 5662 5661 5659 5657 5656 5654 5652 5650 5647 5645 5642 5638 5635 5632 5629 5626 5622 5618 5613 5608 5603 5598 5593 5587 5582 5576 5571 5565 5559 5552 5546 5540 5534 5528 5524 5521 5518 5514 5511 5507 5503 5500 5496 5493 5490 5488 5485 5483 5482 5481 5481 5481 5482 5484 5486
5676 5676 5676 5675 5675 5675 5675 5675 5676 5676 5676 5676 5676 5676 5676 5676 5675 5675 5674 5674 5673 5672 5671 5670 5669 5668 5667 5665 5664 5662 5661 5659 5658 5656 5655 5653 5651 5649 5646 5644 5641 5638 5635 5632 5629 5626 5622 5617 5612 5608 5604 5598 5593 5588 5583 5578 5572 5566 5561 5555 5548 5542 5536 5530 5525 5522 5519 5516 5513 5509 5506 5503 5500 5497 5494 5492 5490 5488 5486 5485 5485 5485 5486 5487 5488
5671 5671 5671 5671 5671 5672 5672 5672 5672 5673 5673 5673 5673 5673 5673 5673 5672 5672 5671 5671 5670 5670 5669 5668 5667 5666 5665 5664 5662 5661 5660 5658 5657 5655 5653 5652 5650 5648 5645 5643 5640 5637 5634 5632 5629 5626 5621 5617 5613 5608 5604 5599 5594 5589 5584 5579 5574 5568 5563 5557 5551 5545 5539 5533 5529 5525 5522 5518 5515 5511 5509 5506 5503 5500 5498 5495 5493 5492 5490 5489 5488 5488 5489 5489 5490
5666 5667 5668 5668 5668 5668 5669 5669 5670 5670 5670 5670 5670 5670 5670 5670 5670 5669 5669 5669 5668 5667 5667 5666 5665 5664 5663 5662 5661 5660 5658 5657 5656 5654 5652 5650 5649 5647 5644 5642 5639 5637 5634 5632 5629 5625 5621 5617 5613 5609 5604 5600 5595 5591 5586 5581 5576 5571 5565 5560 5554 5549 5544 5538 5533 5529 5524 5520 5517 5514 5511 5509 5506 5503 5500 5498 5496 5495 5494 5493 5492 5492 5492 5492 5493
5663 5664 5664 5664 5664 5665 5665 5666 5667 5667 5667 5667 5667 5667 5667 5667 5667 5667 5667 5666 5666 5665 5665 5664 5663 5662 5661 5660 5659 5658 5657 5656 5654 5653 5651 5650 5648 5645 5643 5641 5638 5636 5634 5631 5628 5624 5620 5617 5613 5609 5605 5601 5596 5592 5587 5582 5578 5573 5568 5563 5558 5553 5548 5543 5538 5533 5527 5523 5520 5516 5513 5511 5509 5506 5503 5501 5499 5498 5496 5495 5495 5495 5495 5495 5495
5660 5661 5661 5661 5661 5662 5663 5663 5663 5664 5664 5665 5665 5665 5665 5665 5665 5665 5664 5664 5664 5663 5663 5662 5662 5661 5660 5659 5658 5657 5656 5654 5653 5651 5650 5648 5646 5644 5642 5640 5638 5635 5633 5630 5627 5624 5620 5617 5613 5609 5605 5601 5597 5593 5589 5584 5580 5575 5570 5566 5561 5556 5551 5547 5542 5537 5532 5527 5523 5519 5516 5513 5511 5509 5507 5505 5503 5500 5499 5498 5497 5497 5497 5497 5497
5657 5657 5658 5658 5659 5659 5659 5660 5660 5661 5661 5662 5662 5662 5662 5663 5663 5662 5662 5662 5661 5661 5660 5660 5660 5659 5658 5657 5656 5655 5654 5653 5652 5650 5649 5647 5645 5643 5641 5639 5637 5635 5632 5630 5626 5623 5620 5617 5613 5610 5606 5602 5598 5594 5590 5586 5582 5577 5573 5568 5564 5559 5555 5550 5545 5541 5536 5532 5527 5523 5520 5517 5514 5512 5510 5508 5506 5505 5503 5502 5501 5500 5500 5500 5500
5653 5654 5655 5655 5656 5656 5656 5657 5657 5658 5658 5659 5660 5660 5660 5660 5660 5660 5660 5660 5659 5659 5659 5659 5658 5658 5657 5656 5655 5654 5653 5651 5650 5648 5647 5645 5644 5642 5640 5638 5637 5634 5631 5629 5626 5623 5620 5617 5613 5610 5607 5603 5599 5595 5591 5587 5583 5579 5575 5571 5567 5562 5558 5554 5549 5545 5541 5537 5532 5528 5524 5521 5518 5515 5513 5511 5510 5509 5508 5506 5505 5504 5503 5503 5502
5650 5651 5652 5653 5653 5654 5654 5654 5655 5655 5656 5657 5657 5657 5658 5658 5658 5658 5658 5658 5658 5658 5658 5657 5657 5657 5656 5655 5654 5652 5651 5650 5649 5647 5646 5645 5643 5641 5640 5638 5635 5633 5630 5627 5625 5622 5619 5616 5613 5610 5607 5603 5600 5596 5592 5589 5585 5581 5577 5574 5570 5566 5562 5558 5554 5549 5545 5541 5537 5533 5529 5526 5522 5519 5516 5514 5512 5511 5510 5509 5509 5507 5507 5506 5505
5648 5649 5650 5650 5650 5651 5651 5651 5652 5653 5654 5654 5655 5655 5656 5656 5656 5656 5656 5656 5656 5656 5656 5656 5655 5655 5654 5654 5653 5652 5651 5649 5648 5647 5645 5644 5642 5640 5638 5636 5634 5631 5629 5627 5624 5621 5619 5616 5613 5610 5607 5604 5600 5597 5593 5590 5586 5583 5579 5576 5572 5568 5565 5561 5557 5553 5549 5545 5541 5537 5534 5531 5527 5524 5521 5518 5516 5514 5513 5512 5511 5510 5510 5509 5508
5645 5646 5647 5647 5648 5648 5648 5649 5650 5650 5651 5652 5652 5653 5653 5653 5653 5654 5654 5654 5654 5654 5654 5654 5654 5653 5652 5651 5651 5650 5649 5648 5647 5645 5644 5642 5640 5638 5636 5634 5632 5630 5628 5626 5623 5621 5618 5615 5613 5610 5607 5604 5601 5597 5594 5591 5587 5584 5581 5577 5574 5571 5567 5563 5560 5556 5553 5549 5545 5542 5538 5535 5532 5529 5526 5523 5520 5518 5516 5515 5514 5513 5512 5511 5511
5643 5643 5643 5644 5644 5645 5646 5646 5647 5648 5649 5650 5650 5651 5651 5651 5651 5651 5652 5652 5652 5652 5652 5652 5652 5651 5650 5649 5648 5648 5647 5646 5644 5643 5641 5640 5638 5637 5635 5633 5631 5629 5627 5624 5622 5620 5617 5615 5612 5610 5607 5604 5601 5598 5595 5592 5588 5585 5582 5579 5576 5572 5569 5566 5562 5559 5556 5552 5549 5545 5542 5539 5536 5533 5530 5527 5525 5522 5520 5518 5516 5515 5514 5514 5513
5639 5639 5640 5641 5641 5642 5643 5644 5645 5646 5647 5648 5648 5649 5649 5649 5649 5649 5650 5650 5650 5650 5650 5650 5649 5649 5649 5648 5646 5645 5644 5643 5642 5640 5639 5637 5636 5634 5633 5631 5629 5627 5625 5623 5621 5618 5616 5614 5611 5609 5606 5604 5601 5598 5595 5592 5589 5586 5583 5580 5577 5574 5571 5568 5564 5561 5558 5555 5552 5549 5546 5543 5540 5537 5534 5531 5529 5526 5524 5521 5519 5517 5516 5515 5514
5635 5636 5636 5637 5638 5639 5640 5641 5643 5644 5645 5645 5646 5646 5646 5647 5647 5648 5648 5648 5648 5648 5648 5647 5647 5647 5647 5646 5645 5643 5642 5641 5640 5638 5637 5635 5634 5632 5630 5629 5627 5625 5623 5621 5619 5617 5615 5613 5610 5608 5606 5603 5601 5598 5595 5592 5590 5587 5584 5581 5578 5575 5572 5569 5566 5563 5561 5558 5555 5552 5549 5546 5543 5540 5537 5535 5532 5530 5528 5525 5523 5521 5519 5517 5516
5632 5633 5633 5634 5635 5636 5637 5639 5640 5641 5642 5643 5644 5644 5644 5645 5645 5645 5646 5646 5646 5646 5646 5645 5645 5644 5644 5643 5643 5641 5640 5639 5637 5636 5634 5633 5631 5630 5628 5627 5625 5623 5621 5619 5617 5615 5613 5611 5609 5606 5604 5602 5600 5597 5595 5592 5589 5587 5584 5581 5578 5576 5573 5570 5567 5565 5562 5559 5556 5554 5551 5549 5546 5543 5541 5538 5535 5533 5531 5529 5527 5525 5522 5520 5518
5629 5630 5630 5631 5632 5634 5635 5636 5637 5639 5640 5640 5641 5641 5642 5642 5643 5643 5643 5643 5644 5643 5643 5643 5642 5642 5641 5640 5640 5639 5638 5636 5635 5634 5632 5631 5629 5628 5626 5624 5622 5620 5618 5616 5615 5613 5611 5609 5607 5604 5602 5600 5598 5596 5594 5591 5589 5586 5583 5581 5579 5576 5573 5571 5568 5565 5563 5560 5558 5555 5553 5550 5548 5546 5543 5541 5538 5536 5533 5531 5530 5528 5526 5524 5522
5626 5627 5628 5628 5630 5631 5632 5633 5635 5636 5637 5638 5638 5639 5639 5640 5640 5640 5641 5641 5641 5641 5640 5640 5639 5639 5638 5637 5637 5636 5635 5634 5632 5631 5629 5628 5626 5624 5623 5621 5620 5618 5616 5614 5612 5610 5608 5606 5604 5602 5600 5598 5596 5594 5592 5590 5588 5585 5583 5580 5578 5576 5573 5571 5568 5566 5563 5561 5558 5556 5554 5552 5549 5547 5545 5543 5540 5538 5536 5534 5532 5530 5528 5527 5525
5623 5624 5625 5626 5627 5628 5629 5631 5632 5633 5634 5635 5635 5636 5636 5637 5637 5638 5638 5638 5638 5638 5637 5637 5636 5635 5634 5634 5633 5632 5631 5630 5629 5628 5626 5625 5623 5621 5620 5618 5617 5615 5614 5612 5610 5608 5605 5603 5601 5600 5598 5596 5594 5592 5590 5588 5586 5584 5582 5579 5577 5575 5572 5570 5568 5566 5563 5561 5559 5557 5554 5552 5550 5548 5546 5544 5542 5540 5538 5536 5534 5532 5530 5529 5527
5620 5621 5622 5623 5624 5625 5627 5628 5629 5630 5631 5632 5632 5633 5634 5634 5634 5634 5635 5635 5635 5635 5634 5634 5633 5633 5632 5631 5629 5628 5627 5626 5625 5624 5622 5621 5620 5618 5616 5615 5613 5612 5611 5609 5608 5606 5604 5601 5599 5596 5595 5593 5591 5589 5588 5586 5584 5582 5580 5578 5576 5573 5571 5569 5567 5565 5563 5561 5559 5557 5554 5552 5550 5548 5547 5545 5543 5541 5539 5537 5536 5534 5532 5531 5529
5617 5618 5619 5620 5622 5623 5624 5625 5626 5627 5628 5628 5629 5630 5630 5631 5631 5631 5631 5631 5631 5631 5630 5630 5630 5629 5628 5627 5626 5625 5624 5622 5621 5620 5618 5617 5616 5614 5612 5611 5609 5608 5607 5605 5604 5602 5601 5599 5597 5594 5592 5590 5589 5587 5584 5583 5581 5579 5577 5576 5574 5572 5570 5568 5566 5564 5562 5560 5558 5556 5554 5552 5550 5548 5547 5545 5543 5541 5540 5538 5536 5535 5533 5532 5530
5614 5616 5617 5618 5619 5620 5621 5621 5623 5624 5624 5625 5626 5626 5627 5627 5627 5628 5627 5627 5627 5627 5626 5626 5625 5624 5624 5623 5622 5621 5619 5618 5617 5615 5614 5613 5611 5610 5608 5606 5605 5603 5602 5601 5599 5597 5595 5594 5593 5591 5589 5587 5586 5584 5582 5579 5577 5576 5574 5573 5571 5569 5568 5566 5564 5562 5560 5559 5557 5555 5553 5551 5550 5548 5546 5544 5543 5541 5539 5538 5536 5535 5533 5532 5531